This is the latest recevied weather packets stored in our database for station/object EA1GHG-11. If no packets are shown the sender has not sent any weather packets the latest 10 day(s).
| Time | Temp. | Humidity | Pressure | Rain* | Wind** | Luminosity | Snow |
|---|---|---|---|---|---|---|---|
| 1788364172 | 28.89° C | 76% | 1025 hPa | - | - | - | - |
| 1788362672 | 28.89° C | 79% | 1025.1 hPa | - | - | - | - |
| 1788361172 | 28.89° C | 75% | 1025.2 hPa | - | - | - | - |
| 1788359672 | 28.89° C | 76% | 1025.4 hPa | - | - | - | - |
| 1788359071 | 28.89° C | 79% | 1025.5 hPa | - | - | - | - |
| 1788357571 | 28.33° C | 82% | 1025.7 hPa | - | - | - | - |
| 1788356071 | 27.78° C | 93% | 1025.8 hPa | - | - | - | - |
| 1788354574 | 26.67° C | 100% | 1025.8 hPa | - | - | - | - |
| 1788353071 | 26.11° C | 100% | 1026.1 hPa | - | - | - | - |
| 1788351570 | 25° C | 100% | 1026.3 hPa | - | - | - | - |
| 1788350070 | 24.44° C | 100% | 1026.5 hPa | - | - | - | - |
| 1788348570 | 23.33° C | 100% | 1026.9 hPa | - | - | - | - |
| 1788347070 | 22.78° C | 100% | 1027.1 hPa | - | - | - | - |
| 1788345570 | 21.67° C | 100% | 1027.2 hPa | - | - | - | - |
| 1788344070 | 21.11° C | 100% | 1027.2 hPa | - | - | - | - |
| 1788342570 | 20° C | 100% | 1027.4 hPa | - | - | - | - |
| 1788341070 | 17.78° C | 100% | 1027.3 hPa | - | - | - | - |
| 1788339570 | 17.78° C | 100% | 1027.2 hPa | - | - | - | - |
| 1788338069 | 17.78° C | 100% | 1027 hPa | - | - | - | - |
| 1788337472 | 17.22° C | 100% | 1027 hPa | - | - | - | - |
| 1788336009 | 16.67° C | 100% | 1026.9 hPa | - | - | - | - |
| 1788335971 | 16.67° C | 100% | 1026.9 hPa | - | - | - | - |
| 1788334471 | 14.44° C | 100% | 1026.9 hPa | - | - | - | - |
| 1788332971 | 12.78° C | 100% | 1026.5 hPa | - | - | - | - |
| 1788331471 | 12.22° C | 100% | 1026.5 hPa | - | - | - | - |
* Rain since midnight (hover to see other rain measurements)
** Current wind speed in m/s (hover to see current wind gust speed)